Regional Weather Roundup
Issued by NWS Kansas City/Pleasant Hill, MO

Home | Current Version | Previous Version | Graphics & Text | Print | Product List | Glossary Off
Versions: 1 2 3 4 5 6 7 8 9 10 11 12 13 14 15 16 17 18 19 20 21 22 23 24 25 26 27 28 29 30 31 32 33 34 35 36 37 38 39 40 41 42 43 44 45 46 47 48 49 50

969
ASUS43 KEAX 090910
RWREAX

WEATHER ROUNDUP FOR EASTERN KANSAS AND NORTHWEST MISSOURI
NATIONAL WEATHER SERVICE KANSAS CITY/PLEASANT HILL MO
300 AM CST TUE FEB 09 2016

KSZ040-057-103>105-MOZ028-029-037-043-091000-
...KANSAS CITY METROPOLITAN AREA...

CITY           SKY/WX    TMP DP  RH WIND       PRES   REMARKS
K.C. INTL      CLEAR     26  13  57 NW21G26   30.02F WCI  12
K.C. DOWNTOWN  CLEAR     29  12  49 NW16G25   30.03F WCI  17
LEES SUMMIT    CLEAR     27   9  46 NW18G29   30.02F WCI  14
OLATHE - IXD   CLEAR     28  17  63 NW14      30.04F WCI  17
OLATHE - OJC   CLEAR     27  15  61 NW14G24   30.02F WCI  16
LAWRENCE       CLEAR     28  15  58 NW14      30.07S WCI  17

$$

MOZ001>008-011>017-020>025-030>033-038>040-044>046-053-054-091000-
...NORTHERN AND CENTRAL MISSOURI...

CITY           SKY/WX    TMP DP  RH WIND       PRES   REMARKS
ST. JOSEPH     CLEAR     24  10  55 N21G32    30.06S WCI   9
MOSBY          SUNNY     27  14  59 NW14      30.03S WCI  15
WARRENSBURG    CLEAR     23  18  80 NW9G16    30.02S WCI  13
WHITEMAN AFB   PTCLDY    23  13  66 NW10      29.99F WCI  12
CLINTON          N/A     27  19  74 NW7       30.02F WCI  19
SEDALIA        PTCLDY    23  13  65 NW20G29   29.99F WCI   8
WARSAW         NOT AVBL
CHILLICOTHE      N/A     20  10  65 N14G24    30.02S WCI   7
KIRKSVILLE     FLURRIES  17   7  64 NW13G24   29.95S WCI   4

$$

MOZ041-047>049-056>058-063>065-088>090-097-091000-
...EASTERN AND SOUTHERN MISSOURI...

CITY           SKY/WX    TMP DP  RH WIND       PRES   REMARKS
ST. LOUIS INTL LGT SNOW  21  15  78 NW12      29.90F WCI   9
SPIRIT OF STL  LGT SNOW  21  18  86 W9        29.91F FOG     WCI  11
COLUMBIA       CLOUDY    21  11  65 NW17      29.93F WCI   7
JEFFERSON CITY PTCLDY    22  11  62 NW15G23   29.96F WCI   9
ROLLA          CLOUDY    21  11  65 W22G38    29.89S WCI   5
OSAGE BEACH    MOCLDY    25  10  54 W12G22    29.96F WCI  14
SPRINGFIELD    PTCLDY    27  14  58 NW16G22   29.98F WCI  15
BRANSON        MOCLDY    28  14  54 NW14G22   30.00F WCI  17
JOPLIN         MOCLDY    30  19  63 W10       30.07F WCI  21
WEST PLAINS    PTCLDY    25  11  55 NW16G26   29.93R WCI  12

$$

IAZ060-094-KSZ022-034>040-054-083-096-NEZ052-066-093-091000-
...KANSAS...SOUTHEAST NEBRASKA AND IOWA...

CITY           SKY/WX    TMP DP  RH WIND       PRES   REMARKS
TOPEKA         PTCLDY    31  19  61 NW13G23   30.09S WCI  21
MANHATTAN      CLEAR     31  19  61 NW5       30.14S WCI  26
EMPORIA        CLOUDY    30  18  60 NW13G22   30.10F WCI  20
CHANUTE        PTCLDY    31  19  61 W10       30.09F WCI  22
WICHITA        PTCLDY    31  18  58 NW13      30.16F WCI  21
OMAHA          PTCLDY    19  11  70 N21G28    30.10R WCI   3
LINCOLN        PTCLDY    24  13  62 N17       30.14R WCI  11
FALLS CITY     CLEAR     25  10  53 N18G35    30.07S WCI  11
LAMONI         CLOUDY    14   5  67 N17G26    30.00R WCI  -3
DES MOINES     FLURRIES  13   5  70 N15G23    30.01S WCI  -3

$$





USA.gov is the U.S. government's official web portal to all federal, state and local government web resources and services.